User: anonymous   Login
Location: Ostrava
(49.8330°N, 18.2830°E)
Time: 13:11:36
(UTC+01:00)
Language:

Cosmos 2219 Rocket - Orbit

View from above orbital plane
View from above orbital plane
View from above satellite
View from above satellite

Ground track
Ground track

The orbit data is extracted from the following two-line orbital elements,

1 22220U 92076B   16338.86289920  .00000188  00000-0  11857-3 0  9999
2 22220  70.9996 110.3935 0014180 218.6225 300.6306 14.16408432243114
Epoch (UTC): 03 December 2016 20:42:34
Eccentricity: 0.0014180
inclination: 70.9996°
perigee height: 827 km
apogee height: 848 km
right ascension of ascending node: 110.3935°
argument of perigee: 218.6225°
revolutions per day: 14.16408432
mean anomaly at epoch: 300.6306°
orbit number at epoch: 24311

The dashed part of the orbit path shows where the satellite is in the earth's shadow,  

DLR